{"data":{"norad_id":69515,"epoch":"2026-09-19T11:09:03.467808Z","epoch_age_seconds":114954,"freshness":"FRESH","line1":"1 69515U 26133H   26262.46462347  .00012953  00000+0  39376-3 0  9995","line2":"2 69515  53.1564 234.6674 0001456  95.6882 264.4286 15.34404893 15333","mean_motion":15.34404893,"eccentricity":0.0001456,"inclination_deg":53.1564,"raan_deg":234.6674,"arg_perigee_deg":95.6882,"mean_anomaly_deg":264.4286,"bstar":0.00039376,"rev_number":1533,"period_min":93.847458814119,"perigee_km":461.69267299708,"apogee_km":463.68472144011,"semimajor_km":6840.8256972186,"source":"CELESTRAK","updated_at":"2026-09-20T09:00:44.211789Z"}}